Zurück zum Katalog

FENGYUN 1C DEB

LostSSO
NORAD 47027·DEBRIS·🇨🇳 China

Gestartet May 10, 1999 von Taiyuan Satellite Launch Center

Loading…

Nächste Überflüge (nächste 24 Stunden)

TLE

VeraltetSource: Space-Track

Epoche: Apr 5, 2024, 21:22 UTC

1 47027U 99025FBD 24096.89047343  .00006499  00000-0  27543-2 0  9995
2 47027  98.5069 149.9563 0087727 303.2087 235.1816 14.23661377610542

Verfolge FENGYUN 1C DEB in Echtzeit mit AllMySat

Download on the App Store